Wind_Speed
42 43 44 45 46 47 48 48 49 50 50 51 51 51 51 51 51 51 52 54 54 53 53 53 54 54 54 54 53 52 50 48 48 47 46 45 44 43 43 42 41 41 41
40 41 42 44 45 46 47 48 49 49 50 50 51 51 51 51 51 52 51 53 54 54 54 54 54 54 55 55 55 55 52 51 49 49 48 48 46 45 45 43 42 41 41
38 39 40 41 42 43 45 46 47 49 50 51 51 51 52 52 52 53 53 53 54 56 56 57 57 56 55 56 56 55 55 54 53 52 51 50 50 48 47 45 44 43 43
34 35 36 37 38 39 41 42 43 45 46 47 49 50 51 51 52 53 54 54 54 55 56 57 58 58 58 57 56 57 57 55 54 54 52 51 50 51 49 48 47 45 44
30 31 31 32 34 35 37 39 40 41 43 44 45 47 48 49 50 50 51 52 53 53 54 56 58 59 58 57 56 56 57 56 55 55 53 53 52 51 50 48 47 46 45
24 25 27 28 29 31 33 34 36 37 39 40 42 43 45 46 47 48 49 50 50 51 52 53 55 57 58 57 56 56 56 56 56 56 55 54 52 51 50 49 48 47 46
20 21 22 24 25 26 27 28 29 32 35 37 39 40 42 44 46 47 47 48 48 47 48 50 51 52 54 55 57 57 55 56 57 56 56 55 54 53 53 51 49 49 48
18 18 18 19 20 22 23 24 25 27 30 32 35 37 38 39 40 42 43 44 45 45 46 47 49 49 50 52 55 57 57 57 57 57 56 56 55 53 52 53 52 52 51
15 15 15 16 17 18 20 21 22 23 24 26 28 30 32 34 35 36 38 39 40 41 43 44 44 45 46 48 51 53 55 55 56 56 57 56 56 56 55 55 55 54 53
12 13 13 14 15 15 15 16 16 18 19 21 23 25 27 29 30 33 34 35 37 38 39 40 42 43 44 45 47 49 51 52 53 54 56 56 55 56 56 57 56 55 54
10 11 12 12 13 14 13 13 13 13 13 14 16 20 22 24 26 27 29 30 32 34 36 38 38 40 41 42 43 45 48 50 52 52 53 55 54 54 55 55 56 57 56
9 10 12 12 12 12 12 12 12 11 11 11 11 11 13 15 18 21 23 25 27 30 32 33 35 37 38 39 41 42 45 48 50 51 51 52 54 54 54 55 56 56 56
9 10 12 12 12 13 12 13 12 12 12 11 11 10 10 11 12 14 16 18 21 23 26 28 30 32 34 36 37 39 42 44 46 48 49 51 52 54 54 54 56 57 56
9 10 11 12 12 13 13 13 13 12 12 12 11 11 11 10 10 11 12 14 17 19 21 23 26 28 31 33 35 36 38 40 42 44 46 49 51 52 54 55 56 56 56
10 10 11 12 13 13 13 14 14 13 13 12 12 11 11 10 9 10 11 12 14 16 18 20 22 24 26 29 31 32 34 36 39 42 45 48 51 52 53 54 55 55 56
10 11 12 13 14 14 14 14 14 14 14 13 12 11 11 10 10 11 11 12 14 15 16 17 19 21 24 27 29 30 32 35 37 39 42 44 46 48 50 52 54 55 56
11 12 13 13 14 14 14 14 14 13 13 13 12 12 12 12 11 12 13 13 14 16 18 18 20 22 23 25 27 29 32 34 36 38 40 42 44 46 48 51 53 55 57
13 13 14 14 14 14 15 15 14 14 14 14 13 13 13 14 14 14 14 15 17 18 19 20 21 23 24 26 28 30 32 34 37 39 42 44 47 49 51 52 53 55 58
14 14 15 15 15 15 15 15 16 16 16 16 15 15 15 15 16 17 17 18 19 20 21 22 24 25 27 29 31 33 34 37 39 42 45 47 49 51 53 54 54 55 57
15 15 16 16 17 17 17 17 17 18 17 17 17 18 18 19 19 20 20 22 23 23 24 25 27 29 31 33 34 36 37 39 41 43 46 48 50 51 52 54 56 57 57
16 16 17 17 18 18 19 19 19 19 19 20 20 20 21 21 22 23 24 25 26 27 28 29 31 32 34 35 37 39 40 42 43 45 46 47 49 51 53 54 55 55 56
18 19 19 19 20 20 20 21 21 22 22 23 23 24 24 25 26 27 27 28 29 31 32 33 35 36 37 39 40 42 43 45 46 46 47 49 50 51 52 53 54 55 56
20 21 22 22 22 23 23 24 24 25 25 26 26 27 28 28 29 30 31 32 34 35 35 37 38 40 41 42 44 45 46 47 48 48 48 49 50 51 51 52 53 55 56
23 24 24 24 25 25 26 27 27 28 29 29 30 31 31 32 33 33 35 36 37 38 39 40 41 43 44 45 46 48 48 48 48 48 48 48 49 50 51 52 52 54 55
25 25 26 27 27 27 28 29 30 31 31 32 33 34 34 35 36 37 38 39 40 41 42 43 44 45 46 47 48 49 49 49 48 48 48 49 49 50 51 52 53 54 55
26 27 27 28 29 29 31 32 33 34 34 35 36 37 37 38 39 40 41 42 43 44 45 45 46 47 49 49 50 50 49 49 49 48 48 49 50 50 51 52 53 53 52
Wind_Direction
262 263 263 262 262 261 260 260 259 259 258 258 259 258 258 258 258 257 256 254 253 254 254 254 253 253 254 253 253 253 255 256 256 256 257 258 260 262 264 264 264 264 263
264 264 264 264 264 263 262 261 260 259 259 258 258 258 257 257 257 256 256 254 254 254 253 254 254 253 253 252 253 253 253 254 255 256 256 257 260 263 264 263 264 265 265
265 265 266 266 265 264 263 262 261 260 259 258 258 257 257 257 256 256 256 255 254 253 253 252 253 253 253 253 253 253 253 253 253 255 257 259 260 261 262 263 265 266 266
268 268 269 268 267 266 265 263 262 261 260 259 258 258 257 257 257 256 255 255 254 253 253 252 252 252 252 253 253 252 252 251 252 254 256 259 259 259 261 262 264 265 266
272 271 271 270 269 268 267 265 264 263 261 260 259 258 257 257 256 256 255 254 254 254 253 252 252 251 251 252 252 252 251 251 252 253 255 258 259 260 260 260 261 263 265
277 275 274 274 274 272 270 269 266 264 261 260 259 259 258 256 256 256 254 254 254 253 253 252 252 251 251 250 250 250 250 250 251 253 253 255 257 259 260 260 260 262 263
285 283 279 278 278 277 275 273 270 266 264 262 261 260 259 258 257 256 255 253 252 252 251 252 252 253 251 250 249 249 251 251 251 252 253 254 256 258 260 261 262 262 262
294 290 285 285 284 282 281 280 276 272 269 266 263 260 261 259 258 257 255 253 252 251 251 252 252 252 252 252 250 249 250 251 251 251 253 254 256 258 259 260 261 262 262
300 298 295 294 293 291 289 285 281 278 274 271 266 262 260 259 258 256 254 253 252 251 252 252 253 254 253 252 251 249 249 251 252 252 253 254 257 257 259 261 262 263 263
313 311 308 305 303 299 298 296 291 288 282 276 269 265 264 263 259 256 254 253 253 252 253 254 254 254 254 254 252 250 249 251 252 253 253 254 256 258 259 261 263 264 265
332 331 328 323 318 315 311 310 309 305 299 291 281 273 269 264 261 259 256 255 254 253 253 254 255 255 255 255 254 252 251 252 253 254 255 254 255 259 260 262 263 264 267
347 347 347 343 340 336 330 324 323 321 317 313 305 295 283 275 267 262 259 256 255 256 257 256 257 256 256 257 257 255 254 253 254 254 256 257 258 260 261 262 264 265 266
350 352 354 354 352 350 347 344 342 338 333 328 321 314 305 295 282 272 267 264 263 262 261 260 259 257 258 258 259 258 256 256 255 256 258 259 260 260 261 262 263 264 266
350 351 353 355 354 354 356 355 354 352 349 348 340 329 320 311 300 285 277 274 271 268 268 267 265 263 262 261 261 262 261 259 260 261 260 261 261 261 262 263 264 265 266
1 360 359 358 355 356 356 357 358 355 352 351 350 346 341 331 318 305 295 289 283 279 278 278 275 270 268 266 266 266 265 264 264 264 263 263 263 264 263 264 264 266 267
358 356 353 353 356 358 360 359 356 354 353 351 348 346 343 336 327 320 313 306 299 293 287 285 283 280 277 273 271 271 270 268 266 266 266 267 267 266 267 267 267 267 268
348 349 349 349 351 352 351 350 352 352 348 347 346 343 342 339 331 325 320 313 307 300 295 293 289 285 284 283 280 276 274 272 270 269 270 270 269 269 270 270 269 269 270
346 346 348 348 347 347 346 344 343 342 340 339 340 339 338 337 333 327 323 318 313 306 302 299 296 292 291 290 287 283 279 276 274 273 272 272 271 271 272 272 271 271 271
340 342 342 343 342 341 340 338 336 335 332 331 329 326 325 324 322 320 319 316 315 312 308 306 303 300 297 295 293 290 287 283 280 278 276 275 274 274 274 273 272 272 272
330 332 335 334 334 333 333 332 330 329 327 326 324 322 320 317 315 314 313 311 311 310 309 307 304 301 299 297 295 294 292 289 287 285 282 279 278 277 277 276 275 274 273
322 323 324 326 325 325 325 325 325 323 322 322 320 319 317 316 315 313 312 310 309 309 308 307 305 303 301 299 297 296 294 292 291 289 287 285 283 281 280 279 278 277 275
314 316 316 316 317 317 317 318 317 315 314 314 314 313 312 311 311 310 309 309 308 308 308 308 306 305 303 301 300 299 297 296 294 291 290 289 287 285 284 282 281 279 278
308 311 312 311 311 311 312 312 311 309 308 308 308 308 308 308 307 307 307 307 307 306 306 305 305 304 303 302 301 300 299 297 296 294 292 291 290 288 287 286 284 282 280
304 307 308 308 308 307 308 308 308 307 307 306 306 306 306 306 306 305 305 305 305 305 305 305 305 305 304 303 303 301 300 298 297 295 294 293 292 291 290 289 287 286 284
301 303 305 306 306 306 307 306 306 306 306 305 305 305 305 305 305 305 305 305 305 305 305 306 306 306 306 306 305 304 302 300 298 296 295 295 294 293 293 292 290 289 288
300 302 303 304 305 306 306 306 305 305 305 304 304 304 304 304 304 304 304 304 305 305 305 306 307 307 307 306 306 305 304 302 300 298 297 297 296 295 295 294 293 292 290
Height
5709 5710 5711 5712 5713 5714 5715 5717 5718 5720 5721 5723 5725 5727 5729 5731 5734 5736 5739 5742 5745 5748 5751 5755 5758 5761 5764 5767 5770 5772 5775 5778 5779 5782 5784 5785 5787 5789 5791 5792 5793 5795 5796
5700 5700 5700 5701 5702 5702 5703 5704 5706 5707 5708 5710 5712 5714 5716 5719 5721 5724 5727 5730 5733 5736 5739 5742 5746 5749 5752 5755 5758 5762 5764 5766 5769 5771 5772 5775 5778 5779 5781 5782 5784 5785 5786
5691 5690 5690 5690 5690 5691 5691 5692 5693 5694 5695 5697 5699 5701 5703 5706 5708 5711 5714 5717 5720 5723 5726 5730 5733 5736 5739 5743 5746 5749 5752 5755 5758 5759 5761 5764 5767 5769 5771 5772 5774 5775 5776
5682 5682 5681 5681 5680 5680 5680 5680 5681 5681 5682 5684 5685 5688 5690 5693 5696 5698 5701 5704 5706 5709 5713 5716 5719 5723 5726 5730 5733 5737 5740 5742 5745 5748 5750 5753 5755 5757 5760 5762 5763 5765 5766
5675 5674 5672 5672 5671 5670 5669 5669 5669 5669 5670 5671 5672 5674 5677 5679 5682 5684 5686 5690 5693 5696 5699 5702 5705 5709 5712 5716 5720 5723 5726 5729 5733 5736 5738 5741 5743 5745 5748 5751 5753 5754 5755
5668 5666 5665 5664 5662 5661 5660 5659 5658 5658 5658 5659 5660 5662 5664 5666 5668 5670 5673 5676 5680 5683 5686 5689 5692 5695 5698 5702 5706 5709 5713 5716 5720 5723 5726 5729 5731 5734 5736 5738 5740 5742 5744
5662 5660 5659 5657 5655 5653 5652 5650 5649 5649 5648 5649 5649 5651 5652 5653 5655 5657 5660 5663 5666 5669 5673 5676 5679 5682 5685 5689 5692 5696 5700 5703 5707 5710 5713 5716 5719 5722 5724 5726 5728 5730 5732
5657 5655 5653 5651 5649 5647 5645 5643 5642 5641 5640 5639 5639 5640 5641 5641 5643 5645 5647 5650 5654 5657 5661 5664 5667 5669 5672 5675 5679 5683 5687 5690 5694 5697 5701 5704 5707 5709 5711 5714 5715 5717 5719
5653 5651 5649 5647 5645 5642 5640 5637 5635 5634 5632 5631 5631 5630 5631 5631 5633 5634 5637 5640 5643 5646 5649 5652 5655 5657 5660 5663 5665 5669 5674 5677 5681 5684 5688 5691 5694 5696 5699 5701 5702 5703 5704
5650 5648 5645 5643 5641 5638 5636 5633 5631 5629 5627 5625 5624 5623 5623 5623 5624 5626 5628 5631 5634 5636 5639 5642 5644 5646 5649 5651 5653 5657 5660 5664 5668 5672 5675 5679 5682 5684 5686 5687 5688 5689 5690
5648 5645 5643 5640 5638 5635 5633 5630 5628 5625 5623 5620 5618 5617 5617 5617 5617 5618 5620 5623 5625 5628 5630 5633 5635 5636 5638 5641 5643 5646 5649 5652 5656 5659 5662 5665 5668 5670 5672 5673 5675 5675 5676
5647 5644 5642 5639 5636 5634 5631 5629 5626 5623 5621 5618 5615 5613 5612 5612 5612 5612 5614 5616 5618 5621 5623 5624 5626 5628 5630 5632 5634 5636 5638 5641 5644 5647 5649 5651 5654 5656 5657 5659 5660 5661 5662
5646 5643 5641 5638 5636 5633 5630 5627 5624 5622 5619 5617 5614 5612 5611 5610 5609 5609 5610 5611 5613 5614 5616 5617 5618 5620 5621 5623 5625 5626 5628 5629 5632 5634 5636 5638 5639 5641 5643 5644 5644 5646 5647
5645 5642 5640 5638 5635 5633 5630 5627 5624 5621 5619 5616 5614 5611 5610 5609 5608 5608 5608 5608 5609 5610 5610 5611 5611 5612 5613 5614 5615 5616 5618 5619 5620 5622 5623 5625 5626 5627 5628 5628 5629 5630 5631
5644 5642 5640 5638 5635 5632 5629 5626 5624 5621 5618 5616 5614 5612 5610 5608 5607 5606 5606 5606 5605 5605 5605 5605 5605 5605 5605 5606 5607 5607 5608 5608 5609 5610 5611 5612 5612 5613 5613 5614 5614 5614 5615
5644 5642 5639 5637 5634 5632 5629 5626 5623 5621 5618 5616 5613 5611 5609 5608 5606 5605 5604 5603 5602 5601 5600 5600 5599 5598 5598 5598 5598 5598 5598 5598 5598 5598 5599 5599 5599 5599 5599 5599 5598 5598 5598
5643 5641 5638 5636 5633 5631 5628 5626 5623 5620 5618 5615 5613 5611 5609 5607 5605 5603 5602 5600 5599 5598 5596 5595 5594 5593 5592 5590 5590 5589 5589 5588 5588 5587 5587 5586 5585 5585 5584 5583 5583 5582 5581
5642 5639 5637 5634 5632 5629 5627 5624 5622 5619 5617 5614 5612 5610 5608 5606 5604 5602 5600 5598 5596 5594 5592 5590 5588 5586 5585 5583 5582 5580 5579 5577 5576 5575 5574 5573 5571 5569 5568 5567 5566 5565 5564
5640 5638 5635 5633 5630 5628 5625 5622 5620 5617 5615 5612 5610 5608 5605 5603 5601 5599 5596 5594 5592 5589 5586 5584 5582 5580 5577 5575 5572 5570 5568 5566 5564 5562 5560 5558 5556 5554 5552 5551 5549 5547 5545
5638 5636 5633 5631 5628 5625 5623 5620 5618 5615 5612 5610 5607 5604 5602 5599 5597 5594 5592 5589 5587 5584 5581 5578 5575 5572 5569 5566 5563 5560 5557 5554 5552 5548 5545 5542 5539 5536 5533 5531 5529 5528 5526
5635 5633 5631 5628 5625 5623 5620 5617 5615 5612 5609 5606 5603 5601 5598 5595 5592 5589 5586 5583 5580 5577 5574 5571 5567 5563 5560 5556 5553 5549 5545 5541 5538 5534 5530 5526 5522 5518 5515 5512 5509 5507 5505
5632 5630 5627 5625 5622 5619 5617 5614 5611 5608 5605 5602 5599 5596 5593 5590 5587 5583 5580 5577 5573 5570 5566 5562 5558 5554 5550 5546 5541 5537 5532 5527 5523 5519 5514 5510 5505 5501 5497 5494 5490 5488 5485
5628 5626 5623 5620 5618 5615 5612 5609 5606 5603 5599 5596 5593 5590 5587 5583 5580 5576 5573 5569 5565 5561 5557 5552 5548 5543 5539 5534 5529 5524 5519 5513 5508 5503 5499 5494 5489 5484 5480 5476 5472 5468 5465
5623 5621 5618 5615 5612 5609 5606 5603 5600 5596 5593 5589 5586 5582 5579 5575 5572 5568 5564 5560 5556 5551 5547 5542 5537 5532 5526 5521 5516 5510 5504 5499 5493 5488 5484 5479 5473 5469 5464 5459 5454 5450 5446
5617 5615 5612 5609 5606 5603 5600 5596 5593 5589 5586 5582 5578 5575 5571 5567 5563 5559 5554 5550 5545 5540 5536 5530 5525 5519 5514 5507 5501 5495 5489 5484 5478 5473 5468 5463 5458 5453 5447 5442 5437 5432 5428
5611 5608 5605 5602 5599 5596 5592 5589 5585 5581 5578 5574 5570 5566 5562 5557 5553 5549 5544 5538 5534 5529 5523 5518 5512 5506 5500 5494 5487 5480 5474 5468 5463 5458 5453 5448 5442 5437 5432 5426 5421 5415 5410